Location: Wavehorne
(51.0500°N, 0.8333°E)
Time: 17:18:24
(UTC+00:00)

NOSS 8 (H) - Pass Details

Date: 20 June 2021
Orbit: 375 x 1793 km, 63.3° (Epoch: 03 August)

Event Time Altitude Azimuth Distance (km) Brightness Sun altitude
Exits shadow 00:59:27 32° 192° (SSW) 694 4.8 -14.3°
Maximum altitude 01:00:33 55° 130° (SE) 470 4.3 -14.3°
Drops below altitude 10° 01:03:26 10° 52° (NE) 1,395 7.7 -14.1°
Sets 01:05:28 0° 47° (NE) 2,283 9.0 -14.1°
